Wind_Speed
3 3 4 4 4 3 3 3 4 3 3 3 4 3 3 3 3 4 4 4 5 4 5 5 5 5 5 5 5 5 5 5 5 5 5 4 5 5 5 5 5 5 5
4 4 4 4 4 4 4 5 5 5 4 5 4 4 4 4 4 4 4 4 5 5 5 5 5 5 5 6 6 6 6 5 6 5 5 5 5 6 6 6 6 6 6
4 5 5 5 5 5 6 6 6 6 6 6 5 5 5 5 5 5 5 5 5 5 5 5 6 6 6 6 7 7 7 6 6 6 6 6 6 6 6 6 6 6 6
6 6 5 6 6 6 6 6 6 6 7 7 6 6 5 5 6 6 6 6 5 5 6 6 6 7 7 7 7 8 8 8 8 7 7 7 7 7 7 7 7 7 7
7 7 6 7 7 7 7 7 7 7 7 7 6 6 6 6 7 6 6 6 6 6 6 6 6 7 7 8 8 8 8 8 8 8 8 8 7 7 7 7 7 8 8
6 7 7 6 7 7 7 8 8 8 8 7 7 7 7 7 7 7 7 8 7 7 7 7 7 7 8 8 8 8 9 9 8 8 8 8 8 8 8 8 8 8 8
5 5 6 6 7 7 8 8 8 8 9 8 9 8 8 8 8 8 8 9 9 9 9 9 8 8 8 8 8 8 9 9 9 9 9 8 8 8 8 8 9 9 9
6 6 6 6 6 6 7 8 8 9 9 9 9 9 8 8 8 8 9 9 9 9 10 10 9 9 9 9 9 9 9 9 9 9 9 8 9 9 9 9 9 9 9
7 6 6 6 6 7 8 8 8 9 9 8 8 8 8 8 8 8 9 10 10 10 10 10 10 10 10 10 10 10 9 9 9 9 9 9 9 9 9 9 10 10 10
6 6 6 6 7 7 8 7 8 8 8 9 8 9 8 8 9 9 10 10 11 10 10 10 10 10 10 10 10 10 10 10 10 10 10 10 10 10 9 10 10 10 11
6 6 6 6 7 7 7 7 7 7 8 8 8 8 8 9 9 9 10 10 10 10 10 10 10 10 10 10 10 10 10 10 11 11 11 10 10 10 10 10 11 11 11
6 6 6 6 6 6 6 7 7 7 7 7 7 7 8 8 8 9 9 10 10 10 10 11 11 10 10 11 11 11 11 11 11 11 11 11 11 11 11 11 12 13 13
6 6 6 6 6 5 6 6 6 7 7 7 6 7 7 8 8 8 9 9 10 10 11 11 11 11 11 11 11 11 11 10 11 12 12 11 11 12 12 12 12 13 13
6 6 5 5 5 5 5 5 5 6 6 6 6 6 7 7 7 8 8 9 9 10 10 11 12 12 11 11 11 11 10 11 10 11 11 11 12 12 12 12 13 13 13
5 5 5 5 5 5 5 5 6 6 6 6 6 6 6 7 7 8 8 9 10 10 10 10 11 12 12 12 11 11 10 11 11 11 11 11 12 12 12 12 12 12 12
6 6 5 5 5 6 6 6 6 6 6 6 5 5 6 7 8 8 8 8 8 9 9 10 11 11 11 12 12 12 12 11 11 12 12 12 13 13 12 12 12 12 11
7 6 6 5 6 7 6 6 6 6 7 7 6 6 6 7 7 7 7 7 8 8 8 9 10 10 11 12 12 12 12 12 12 12 12 13 13 13 13 12 12 12 12
7 6 7 7 7 7 7 6 7 7 7 7 7 7 7 7 7 7 7 7 7 8 8 8 9 9 10 11 11 12 12 11 12 12 12 13 13 13 13 12 12 12 13
7 7 7 7 7 8 8 7 7 7 7 7 7 7 8 8 8 7 7 7 7 8 8 8 8 8 9 10 10 11 11 11 12 12 12 13 13 13 13 13 13 13 13
7 7 8 8 8 9 9 9 8 8 8 8 8 8 8 8 8 7 7 7 8 7 8 8 8 9 9 9 10 10 11 11 12 12 12 12 13 13 14 14 14 14 13
8 8 8 8 8 9 9 9 9 9 8 9 9 8 8 8 8 8 8 8 8 9 9 9 9 9 9 9 10 10 10 11 12 12 13 13 13 13 13 13 14 14 15
9 9 9 9 9 9 9 9 9 8 8 9 9 8 8 8 8 9 9 9 9 9 9 9 9 10 10 10 10 10 11 11 12 12 13 13 13 14 14 14 14 14 14
9 9 9 9 10 10 9 9 9 8 8 8 8 8 8 8 9 10 10 10 10 10 10 10 11 11 11 11 11 11 12 12 13 13 12 12 13 14 14 14 14 14 13
9 10 10 9 9 9 9 9 8 8 9 8 8 8 8 9 9 10 10 11 11 11 11 11 12 12 12 12 12 12 13 13 13 13 13 13 13 14 14 14 14 14 14
9 10 10 10 10 10 9 9 9 9 10 10 10 10 10 10 10 11 11 11 12 12 12 12 12 13 13 13 13 13 13 13 13 13 13 14 14 14 14 14 14 14 14
10 11 11 11 10 10 10 10 10 11 11 11 12 12 12 12 12 12 11 12 12 13 13 13 14 14 14 14 14 14 14 14 14 14 14 14 14 14 14 14 14 14 14
Wind_Direction
261 262 259 261 265 271 280 278 290 298 305 309 306 304 305 313 317 318 316 315 313 307 306 303 298 295 284 276 276 281 277 275 273 268 264 257 259 257 255 262 269 270 271
266 261 270 275 273 275 280 285 290 300 299 302 298 292 293 297 304 309 310 309 309 307 301 297 294 293 284 278 278 281 278 276 271 267 262 261 265 262 260 265 267 271 270
262 267 271 275 277 283 285 285 285 289 292 293 293 289 290 293 296 300 299 299 302 301 296 291 288 285 282 281 282 280 276 270 271 274 265 261 263 264 263 264 266 268 268
262 269 274 279 278 278 284 288 288 289 291 288 290 289 286 287 290 294 292 294 298 298 294 290 288 283 282 281 283 281 277 272 271 272 269 265 266 267 266 266 269 267 268
262 266 270 279 280 279 283 285 289 289 288 290 292 294 286 284 287 289 285 287 289 292 293 292 292 286 286 286 286 282 280 276 272 270 269 268 273 275 270 271 277 273 269
266 267 269 277 275 274 279 281 282 282 282 286 289 293 286 282 285 283 281 283 282 284 285 288 290 288 287 285 285 282 279 277 272 271 270 271 273 274 273 271 274 270 267
268 273 271 275 280 278 278 279 279 278 279 281 284 284 282 282 283 284 284 282 280 281 282 284 286 284 282 282 280 277 276 274 270 273 273 270 273 273 270 269 271 271 266
272 276 273 279 282 282 281 278 276 277 280 285 281 280 282 282 280 282 282 282 280 278 281 281 282 283 282 281 277 276 276 272 272 274 272 271 273 274 269 268 270 270 266
272 270 268 274 282 284 285 281 279 280 278 281 279 276 278 280 281 280 280 282 281 279 280 278 277 279 281 279 276 273 272 269 270 272 272 269 270 269 267 268 269 269 265
273 272 269 273 282 283 284 283 277 276 277 279 279 274 273 276 279 281 280 280 280 278 277 275 274 278 278 276 275 273 271 268 268 271 272 269 268 271 271 271 270 273 266
270 273 273 280 283 284 285 285 282 276 283 278 273 276 279 279 277 279 280 279 278 278 278 275 276 277 276 277 277 272 271 268 270 268 269 269 270 271 270 272 274 272 270
269 269 272 275 277 281 287 287 287 285 288 286 278 275 278 280 279 281 280 282 279 278 276 277 276 273 274 274 275 272 269 268 267 265 268 270 270 270 272 273 275 276 274
269 271 273 275 274 281 290 292 290 293 293 292 287 279 280 280 283 284 282 283 281 279 277 276 275 274 271 270 271 271 268 266 263 266 267 268 268 269 270 272 276 278 279
259 262 275 281 278 284 296 296 294 298 297 297 294 290 289 285 285 286 284 283 281 280 281 283 278 274 273 272 271 270 268 266 268 270 268 267 268 268 270 273 277 277 278
254 258 267 275 279 286 295 295 291 294 297 300 293 288 288 287 288 290 289 286 282 282 281 282 281 275 273 275 274 271 269 266 267 270 270 270 273 274 274 275 276 275 272
257 263 269 272 280 286 295 299 291 287 293 298 292 284 285 290 290 289 290 286 286 287 284 281 283 281 276 278 278 275 272 271 267 270 272 272 275 277 277 278 277 276 272
258 263 269 278 284 290 294 294 290 288 287 289 289 283 282 292 291 286 284 285 287 287 288 286 285 288 282 280 277 275 275 276 276 272 272 272 274 273 273 276 277 277 275
255 257 264 273 281 286 288 287 287 289 287 285 284 284 286 292 291 284 281 285 288 290 292 294 293 290 289 284 279 276 275 277 278 277 275 276 275 271 271 275 275 275 271
259 259 264 271 274 278 277 277 281 283 283 287 288 289 289 290 288 282 282 286 288 291 293 296 294 292 290 288 285 281 279 279 277 277 274 276 277 273 271 272 272 271 271
259 260 264 270 271 271 271 271 276 278 276 281 284 284 286 287 285 283 283 289 289 288 290 292 291 290 290 293 290 285 281 279 275 273 274 276 276 275 273 273 273 271 271
263 264 267 270 273 274 269 269 271 272 272 274 277 279 282 284 287 288 287 288 291 291 291 290 289 289 292 293 292 287 282 279 279 277 276 276 275 275 276 277 276 274 273
265 268 271 273 274 275 274 270 269 272 273 275 274 276 279 281 285 285 286 286 287 290 291 291 294 294 294 295 293 291 288 286 286 284 283 279 279 278 278 279 278 277 277
269 271 274 274 274 272 274 271 271 275 276 275 276 278 281 282 285 284 287 285 288 291 292 293 295 294 292 293 291 291 290 288 286 286 286 284 279 277 278 277 276 275 273
273 273 274 275 275 276 277 275 274 273 273 272 274 279 282 283 285 286 286 286 288 290 290 290 291 293 291 289 290 290 290 288 285 285 285 283 281 279 279 278 277 275 274
276 277 277 276 275 273 274 274 273 272 273 273 276 277 281 282 283 284 283 284 286 289 291 290 288 290 289 286 286 288 289 289 286 285 285 284 282 280 279 278 278 276 274
278 278 279 277 276 275 278 279 278 275 275 276 277 278 280 280 282 283 281 283 286 289 291 290 289 288 287 285 284 284 286 286 285 284 282 281 281 281 281 280 278 277 276
Height
5877 5877 5877 5877 5877 5877 5877 5877 5877 5877 5877 5877 5877 5877 5877 5877 5877 5877 5877 5877 5877 5878 5878 5878 5878 5878 5878 5878 5879 5879 5879 5879 5879 5879 5879 5879 5879 5880 5880 5880 5880 5880 5880
5877 5877 5876 5877 5877 5877 5877 5877 5877 5877 5876 5876 5876 5876 5876 5876 5876 5877 5877 5877 5877 5877 5877 5877 5877 5877 5877 5877 5878 5878 5878 5878 5878 5878 5878 5878 5878 5879 5879 5879 5879 5879 5879
5876 5876 5876 5876 5876 5876 5876 5876 5876 5876 5876 5875 5875 5875 5875 5876 5875 5876 5876 5876 5876 5876 5876 5876 5876 5876 5876 5876 5876 5877 5877 5877 5877 5877 5877 5877 5878 5878 5878 5878 5878 5878 5878
5875 5875 5875 5875 5875 5875 5875 5875 5875 5875 5875 5874 5874 5874 5874 5874 5874 5874 5875 5875 5875 5875 5875 5875 5875 5875 5875 5875 5875 5875 5875 5875 5876 5876 5876 5876 5876 5877 5877 5877 5877 5877 5877
5874 5874 5874 5874 5874 5874 5874 5874 5873 5873 5873 5873 5873 5873 5873 5873 5873 5873 5873 5873 5874 5873 5873 5873 5873 5873 5874 5874 5874 5874 5874 5874 5874 5874 5874 5875 5875 5875 5875 5875 5875 5875 5875
5873 5873 5873 5873 5873 5873 5872 5872 5872 5872 5872 5872 5871 5871 5871 5871 5872 5872 5872 5872 5872 5872 5872 5872 5872 5872 5872 5872 5872 5872 5872 5872 5872 5873 5873 5873 5874 5874 5874 5874 5874 5874 5874
5872 5872 5871 5871 5871 5871 5871 5871 5870 5870 5870 5870 5870 5870 5870 5870 5870 5870 5870 5870 5870 5870 5870 5870 5870 5871 5871 5871 5871 5871 5871 5871 5871 5871 5872 5872 5872 5872 5872 5872 5872 5872 5872
5871 5870 5870 5870 5870 5870 5869 5869 5869 5869 5869 5868 5868 5868 5868 5868 5868 5868 5868 5868 5868 5868 5868 5869 5869 5869 5869 5869 5869 5869 5869 5869 5869 5870 5870 5870 5870 5870 5870 5870 5870 5870 5870
5869 5869 5869 5869 5868 5868 5868 5868 5867 5867 5867 5867 5866 5866 5867 5867 5867 5867 5866 5866 5866 5866 5866 5866 5867 5867 5867 5867 5867 5867 5867 5867 5868 5868 5868 5868 5868 5868 5868 5868 5868 5868 5868
5868 5868 5867 5867 5867 5866 5866 5866 5866 5865 5865 5865 5865 5865 5865 5865 5865 5865 5864 5864 5864 5864 5864 5864 5864 5865 5865 5865 5865 5865 5865 5865 5865 5866 5866 5866 5866 5866 5866 5866 5866 5866 5866
5867 5866 5866 5866 5865 5865 5864 5864 5864 5864 5863 5863 5863 5863 5863 5863 5863 5863 5862 5862 5862 5862 5862 5862 5862 5862 5863 5863 5863 5863 5863 5863 5863 5863 5864 5864 5864 5864 5864 5864 5864 5863 5863
5865 5865 5864 5864 5864 5864 5863 5863 5862 5862 5862 5861 5861 5861 5861 5861 5861 5861 5860 5860 5860 5860 5860 5860 5860 5860 5860 5860 5860 5860 5860 5860 5861 5861 5861 5861 5861 5861 5861 5861 5861 5861 5860
5863 5863 5863 5862 5862 5862 5862 5861 5861 5861 5860 5860 5859 5859 5859 5859 5859 5858 5858 5858 5858 5858 5858 5858 5858 5858 5858 5858 5858 5858 5858 5858 5858 5858 5858 5859 5859 5859 5859 5858 5858 5857 5856
5862 5862 5861 5861 5861 5861 5860 5860 5860 5859 5859 5858 5858 5858 5858 5857 5857 5857 5857 5857 5856 5856 5856 5856 5856 5856 5855 5855 5855 5855 5856 5856 5856 5856 5856 5856 5856 5856 5856 5855 5855 5854 5853
5860 5860 5860 5860 5860 5860 5859 5859 5858 5858 5857 5857 5857 5856 5856 5856 5856 5855 5855 5855 5855 5854 5854 5854 5853 5853 5853 5853 5853 5853 5853 5853 5853 5853 5853 5853 5853 5853 5853 5852 5852 5851 5851
5859 5859 5859 5859 5859 5858 5858 5857 5857 5857 5856 5856 5855 5855 5855 5855 5854 5854 5853 5853 5853 5852 5852 5852 5851 5851 5851 5850 5850 5850 5850 5851 5851 5851 5851 5851 5851 5850 5850 5850 5849 5849 5849
5858 5858 5857 5857 5857 5857 5857 5856 5856 5855 5855 5854 5854 5854 5854 5853 5853 5852 5852 5851 5851 5850 5850 5850 5849 5849 5848 5848 5848 5848 5848 5848 5848 5848 5848 5848 5848 5848 5847 5847 5846 5846 5846
5856 5856 5856 5856 5856 5856 5855 5855 5855 5854 5854 5853 5853 5852 5852 5851 5851 5850 5850 5850 5849 5848 5848 5848 5847 5847 5846 5846 5846 5845 5845 5845 5845 5845 5845 5845 5845 5845 5844 5844 5844 5843 5843
5855 5855 5855 5854 5854 5854 5854 5854 5853 5853 5852 5852 5851 5851 5850 5850 5849 5849 5848 5848 5847 5847 5846 5846 5845 5845 5844 5844 5843 5843 5842 5842 5843 5842 5842 5842 5842 5842 5841 5841 5841 5840 5840
5853 5853 5853 5853 5852 5852 5852 5852 5852 5851 5851 5850 5850 5849 5849 5848 5847 5847 5846 5846 5846 5845 5844 5844 5843 5843 5842 5842 5841 5840 5840 5840 5839 5839 5839 5839 5839 5838 5838 5838 5838 5837 5837
5851 5851 5851 5851 5851 5850 5850 5850 5850 5849 5849 5849 5848 5848 5847 5847 5846 5845 5845 5845 5844 5843 5843 5842 5841 5841 5840 5839 5839 5838 5838 5837 5836 5836 5836 5836 5835 5835 5835 5835 5834 5834 5834
5849 5849 5849 5849 5848 5848 5848 5848 5847 5847 5847 5847 5846 5846 5845 5845 5844 5844 5843 5842 5842 5841 5840 5840 5839 5838 5838 5837 5837 5836 5835 5835 5834 5833 5833 5832 5832 5832 5832 5831 5831 5831 5830
5847 5847 5846 5846 5846 5846 5846 5845 5845 5844 5845 5845 5844 5844 5843 5843 5842 5841 5841 5840 5839 5839 5838 5837 5837 5836 5836 5835 5834 5834 5833 5832 5831 5830 5829 5829 5828 5828 5828 5828 5827 5827 5827
5845 5844 5844 5844 5844 5843 5843 5843 5842 5842 5842 5842 5842 5841 5841 5840 5840 5839 5838 5838 5837 5836 5835 5835 5834 5833 5833 5832 5831 5830 5830 5829 5828 5827 5826 5826 5825 5825 5824 5824 5824 5823 5823
5842 5842 5842 5841 5841 5841 5841 5840 5840 5840 5840 5840 5839 5839 5838 5837 5837 5836 5835 5835 5834 5834 5833 5832 5831 5830 5829 5829 5828 5827 5826 5825 5824 5824 5823 5822 5822 5821 5821 5820 5820 5820 5819
5840 5839 5839 5838 5838 5838 5838 5838 5837 5837 5837 5836 5836 5835 5835 5834 5834 5833 5832 5832 5831 5830 5829 5829 5828 5827 5826 5825 5824 5824 5822 5822 5821 5820 5819 5819 5818 5817 5817 5817 5816 5816 5816